Showing default

ICEYE-X5, 44389

Orbit data source: Space-Track

ICEYE-X5, 44389 is a payload satellite owned by ICEYE (FI) in SSO that was launched on Fri, 05 Jul 2019 UTC via a SOYUZ-2-1B launch vehicle from the Vostochny Cosmodrome (VOSTO). Payload-class satellites include a variety of spacecraft equipped with specific instruments for various scientific and technological missions. These include communications satellites like Starlink; space stations such as the ISS; scientific satellites like the Hubble; Earth observation satellites from companies like Planet Labs, Umbra, and HawkEye 360; GPS; miniature CubeSats for education and research; and military/defense satellites.

Not visible in the next 10 days
Identifier
44389, 2019-038C
Orbit
SSO
Country
Flag of FIFI / FIN
Related business
Manufacturer
ICEYE
Mission
Non-operational Commercial Radar Imaging
Bus & Motor
ICEYE, Unknown motor
Mass
80 kg wet, 80 kg dry
Launch date (UTC)
2019-07-05 (7 years ago)
Launch vehicle
SOYUZ-2-1B
Launch site
Vostochny Cosmodrome (VOSTO)
Object type
Payload
Rocket body
Debris
Shape & HBR
Box + 1 Pan, 1.6 m
Radar Cross Section
1.837 m², Medium (>0.1 m² and < 1m²)

Expand to show TLE details & history
Last TLE update: 8 hours ago

TLE from 8 hours ago
0 ICEYE-X5
1 44389U 19038C   26227.62017596  .00034147  00000-0  41441-3 0  9990
2 44389  97.8634 288.5114 0004630  60.1574 300.0142 15.60535313392211
Epoch: 2026-08-15T14:53Z
TLE epoch observation values (Epoch: 2026-08-15T14:53:03.202Z)
Latitude
0.00001°
Longitude
101.21962°
Altitude
387.675 km
Speed
7.678 km/s
True Right ascension
19h 14m 02s
True Declination
0° 00' 00"
Sunlit
Object was in full shadow at epoch
Visualization orbit readout
Latitude
Unknown
Longitude
Unknown
Altitude
Unknown
Speed
Unknown
Apparent Right ascension
Unknown
Apparent Declination
Unknown
Sunlit
N/A
Visualization observer readout
Local Sidereal Time
13:26:55
Azimuth
Unknown
Elevation
Unknown
Doppler factor
Unknown
Orbital elements
Apogee altitude
386.173 km
Perigee altitude
379.912 km
Semi-major axis
6,761.179 km
Eccentricity
0.00046
Inclination
97.8634°
RAAN
288.5114°
Arg. of periapsis
60.1574°
True anomaly
299.96825°
Mean anomaly
300.0142°
Eccentric anomaly
299.99122°
Mean motion
3.904 °/min
Orbital period
92.21 mins
BSTAR
0.00041441
Loading maneuver chart data...
Computing Atmospheric mass density...

Documentation

Showing up to 5 results
|